Location: Caltech
(34.1382°N, 118.1253°W)
Time: 03:19:25
(UTC-07:00)

Uosat F - Visible Passes

Search period start: 21 October 2014 00:00
Search period end: 31 October 2014 00:00
Orbit: 752 x 761 km, 98.7° (Epoch: 20 October)

Date Brightness Start Highest point End Pass type
(mag) Time Alt. Az. Time Alt. Az. Time Alt. Az.
21 Oct 11.8 05:00:14 10° NNE 05:05:10 51° E 05:10:03 10° S visible
22 Oct 13.5 04:22:10 10° NE 04:25:51 20° E 04:29:30 10° SE visible
22 Oct 11.5 06:00:03 10° N 06:04:41 38° WNW 06:09:19 10° SW visible
23 Oct 11.1 05:20:36 10° NNE 05:25:41 84° ESE 05:30:43 10° SSW visible
24 Oct 12.7 04:41:57 10° NE 04:46:28 32° E 04:50:57 10° SSE visible
24 Oct 12.1 06:21:02 10° NNW 06:25:02 24° WNW 06:29:01 10° WSW visible
25 Oct 14.0 04:04:58 10° ENE 04:07:02 12° E 04:09:06 10° ESE visible
25 Oct 11.0 05:41:10 10° N 05:46:08 60° WNW 05:51:05 10° SSW visible
26 Oct 11.8 05:02:05 10° NNE 05:07:02 53° E 05:11:56 10° S visible
26 Oct 12.6 06:42:27 10° NNW 06:45:19 15° WNW 06:48:11 10° W visible
27 Oct 13.4 04:23:57 10° NE 04:27:42 21° E 04:31:25 10° SE visible
27 Oct 11.6 06:01:55 10° N 06:06:32 37° WNW 06:11:07 10° SW visible
28 Oct 11.0 05:22:27 10° NNE 05:27:32 87° ESE 05:32:34 10° SSW visible
29 Oct 12.7 04:43:46 10° NE 04:48:19 33° E 04:52:49 10° SSE visible
29 Oct 12.1 06:22:55 10° NNW 06:26:52 24° WNW 06:30:48 10° WSW visible
30 Oct 14.0 04:06:40 10° ENE 04:08:53 13° E 04:11:06 10° ESE visible
30 Oct 11.1 05:43:01 10° N 05:47:58 58° WNW 05:52:54 10° SSW visible
